TimeEDT,TemperatureF,Dew PointF,Humidity,Sea Level PressureIn,VisibilityMPH,Wind Direction,Wind SpeedMPH,Gust SpeedMPH,PrecipitationIn,Events,Conditions,WindDirDegrees,DateUTC
12:15 AM,59.0,53.6,82,30.27,10.0,ENE,6.9,-,N/A,Rain,Light Rain,60,2013-08-18 04:15:00
12:35 AM,59.0,53.6,82,30.27,10.0,NE,3.5,-,N/A,Rain,Rain,40,2013-08-18 04:35:00
12:55 AM,59.0,53.6,82,30.26,10.0,NE,5.8,-,0.01,,Drizzle,50,2013-08-18 04:55:00
1:15 AM,57.2,53.6,88,30.26,10.0,NE,4.6,-,N/A,Rain,Rain,50,2013-08-18 05:15:00
1:35 AM,57.2,53.6,88,30.25,10.0,NE,3.5,-,N/A,Rain,Rain,40,2013-08-18 05:35:00
1:55 AM,57.2,53.6,88,30.25,10.0,NE,4.6,-,0.01,,Light Drizzle,40,2013-08-18 05:55:00
2:15 AM,57.2,53.6,88,30.24,10.0,NE,4.6,-,N/A,,Light Drizzle,40,2013-08-18 06:15:00
2:35 AM,57.2,53.6,88,30.24,10.0,NE,4.6,-,N/A,Rain,Light Rain,40,2013-08-18 06:35:00
2:55 AM,57.2,53.6,88,30.25,10.0,NNE,4.6,-,N/A,Rain,Light Rain,20,2013-08-18 06:55:00
3:15 AM,55.4,53.6,94,30.24,10.0,NE,4.6,-,0.01,Rain,Light Rain,50,2013-08-18 07:15:00
3:35 AM,55.4,53.6,94,30.25,10.0,NNE,4.6,-,0.01,Rain,Rain,20,2013-08-18 07:35:00
3:55 AM,55.4,53.6,94,30.24,10.0,NE,3.5,-,0.01,Rain,Light Rain,50,2013-08-18 07:55:00
4:15 AM,55.4,53.6,94,30.24,10.0,Calm,Calm,-,N/A,,Light Drizzle,0,2013-08-18 08:15:00
4:35 AM,57.2,53.6,88,30.24,10.0,NNE,4.6,-,N/A,,Light Drizzle,20,2013-08-18 08:35:00
4:55 AM,57.2,53.6,88,30.24,10.0,NNE,4.6,-,N/A,,Light Drizzle,20,2013-08-18 08:55:00
5:15 AM,57.2,53.6,88,30.24,10.0,NNE,4.6,-,N/A,,Light Drizzle,30,2013-08-18 09:15:00
5:35 AM,57.2,53.6,88,30.23,10.0,NE,3.5,-,N/A,Rain,Light Rain,40,2013-08-18 09:35:00
5:55 AM,57.2,53.6,88,30.24,10.0,NNE,5.8,-,N/A,,Overcast,20,2013-08-18 09:55:00
6:15 AM,57.2,53.6,88,30.24,10.0,NNE,4.6,-,N/A,,Overcast,30,2013-08-18 10:15:00
6:35 AM,57.2,53.6,88,30.26,10.0,North,3.5,-,0.01,,Overcast,0,2013-08-18 10:35:00
6:55 AM,57.2,53.6,88,30.26,10.0,Calm,Calm,-,0.01,,Overcast,0,2013-08-18 10:55:00
7:15 AM,57.2,55.4,94,30.26,10.0,Calm,Calm,-,N/A,,Overcast,0,2013-08-18 11:15:00
7:35 AM,57.2,55.4,94,30.27,10.0,Calm,Calm,-,N/A,,Light Drizzle,0,2013-08-18 11:35:00
7:55 AM,57.2,55.4,94,30.26,10.0,NNE,4.6,-,N/A,Rain,Light Rain,30,2013-08-18 11:55:00
8:15 AM,59.0,55.4,88,30.27,10.0,Calm,Calm,-,N/A,,Overcast,0,2013-08-18 12:15:00
8:35 AM,59.0,55.4,88,30.28,10.0,Calm,Calm,-,N/A,Rain,Light Rain,0,2013-08-18 12:35:00
8:55 AM,59.0,55.4,88,30.28,10.0,Calm,Calm,-,N/A,Rain,Light Rain,0,2013-08-18 12:55:00
9:15 AM,59.0,55.4,88,30.28,10.0,Calm,Calm,-,N/A,,Light Drizzle,0,2013-08-18 13:15:00
9:35 AM,59.0,55.4,88,30.28,10.0,Calm,Calm,-,N/A,,Overcast,0,2013-08-18 13:35:00
9:55 AM,59.0,55.4,88,30.29,10.0,Calm,Calm,-,N/A,,Overcast,0,2013-08-18 13:55:00
10:15 AM,60.8,57.2,88,30.29,10.0,Calm,Calm,-,N/A,Rain,Light Rain,0,2013-08-18 14:15:00
10:35 AM,-9999,-9999,N/A,30.29,-9999.0,Calm,Calm,-,N/A,,Unknown,0,2013-08-18 14:35:00
10:55 AM,60.8,57.2,88,30.29,10.0,Calm,Calm,-,N/A,,Overcast,0,2013-08-18 14:55:00
11:15 AM,62.6,57.2,82,30.29,10.0,Calm,Calm,-,N/A,,Overcast,0,2013-08-18 15:15:00
11:35 AM,60.8,57.2,88,30.30,10.0,Calm,Calm,-,N/A,,Overcast,0,2013-08-18 15:35:00
11:55 AM,62.6,57.2,82,30.30,10.0,Calm,Calm,-,N/A,,Overcast,0,2013-08-18 15:55:00
12:15 PM,62.6,57.2,82,30.30,10.0,Calm,Calm,-,N/A,,Overcast,0,2013-08-18 16:15:00
12:35 PM,62.6,57.2,82,30.29,10.0,Calm,Calm,-,N/A,,Overcast,0,2013-08-18 16:35:00
12:55 PM,62.6,57.2,82,30.29,10.0,Calm,Calm,-,N/A,,Overcast,0,2013-08-18 16:55:00
1:15 PM,62.6,57.2,82,30.29,10.0,Calm,Calm,-,N/A,,Overcast,0,2013-08-18 17:15:00
1:35 PM,62.6,57.2,82,30.29,10.0,Calm,Calm,-,N/A,,Overcast,0,2013-08-18 17:35:00
1:55 PM,64.4,57.2,77,30.29,10.0,Calm,Calm,-,N/A,,Overcast,0,2013-08-18 17:55:00
2:15 PM,64.4,59.0,83,30.28,10.0,SW,4.6,-,N/A,,Overcast,230,2013-08-18 18:15:00
2:35 PM,64.4,59.0,83,30.28,10.0,WSW,4.6,-,N/A,,Overcast,240,2013-08-18 18:35:00
2:55 PM,64.4,59.0,83,30.27,10.0,NW,3.5,-,N/A,,Overcast,310,2013-08-18 18:55:00
3:15 PM,64.4,59.0,83,30.26,10.0,Calm,Calm,-,N/A,,Overcast,0,2013-08-18 19:15:00
3:35 PM,66.2,59.0,78,30.25,10.0,Calm,Calm,-,N/A,,Overcast,0,2013-08-18 19:35:00
3:55 PM,68.0,59.0,73,30.24,10.0,Calm,Calm,-,N/A,,Overcast,0,2013-08-18 19:55:00
4:15 PM,68.0,59.0,73,30.24,10.0,ESE,3.5,-,N/A,,Overcast,120,2013-08-18 20:15:00
4:35 PM,68.0,59.0,73,30.24,10.0,Calm,Calm,-,N/A,,Overcast,0,2013-08-18 20:35:00
4:55 PM,68.0,59.0,73,30.25,10.0,Calm,Calm,-,N/A,,Overcast,0,2013-08-18 20:55:00
5:15 PM,68.0,59.0,73,30.25,10.0,Calm,Calm,-,N/A,,Overcast,0,2013-08-18 21:15:00
5:35 PM,68.0,59.0,73,30.24,10.0,ESE,3.5,-,N/A,,Overcast,110,2013-08-18 21:35:00
5:55 PM,66.2,59.0,78,30.24,10.0,SE,3.5,-,N/A,,Overcast,140,2013-08-18 21:55:00
6:15 PM,66.2,59.0,78,30.24,10.0,Calm,Calm,-,N/A,,Overcast,0,2013-08-18 22:15:00
6:35 PM,66.2,59.0,78,30.23,10.0,Calm,Calm,-,N/A,,Overcast,0,2013-08-18 22:35:00
6:55 PM,64.4,59.0,83,30.23,10.0,Calm,Calm,-,N/A,,Overcast,0,2013-08-18 22:55:00
7:15 PM,64.4,59.0,83,30.23,10.0,Calm,Calm,-,N/A,,Overcast,0,2013-08-18 23:15:00
7:35 PM,64.4,59.0,83,30.24,10.0,Calm,Calm,-,N/A,,Overcast,0,2013-08-18 23:35:00
7:55 PM,62.6,59.0,88,30.24,4.0,Calm,Calm,-,N/A,,Drizzle,0,2013-08-18 23:55:00
8:15 PM,62.6,59.0,88,30.25,10.0,Calm,Calm,-,N/A,,Overcast,0,2013-08-19 00:15:00
8:35 PM,62.6,59.0,88,30.25,10.0,Calm,Calm,-,N/A,,Overcast,0,2013-08-19 00:35:00
8:55 PM,62.6,59.0,88,30.25,10.0,Calm,Calm,-,0.01,,Overcast,0,2013-08-19 00:55:00
9:15 PM,62.6,59.0,88,30.25,10.0,Calm,Calm,-,N/A,,Overcast,0,2013-08-19 01:15:00
9:35 PM,62.6,59.0,88,30.26,10.0,Calm,Calm,-,N/A,,Overcast,0,2013-08-19 01:35:00
9:55 PM,60.8,59.0,94,30.26,10.0,Calm,Calm,-,N/A,,Overcast,0,2013-08-19 01:55:00
10:15 PM,62.6,59.0,88,30.27,10.0,Calm,Calm,-,N/A,,Mostly Cloudy,0,2013-08-19 02:15:00
10:35 PM,60.8,59.0,94,30.26,10.0,Calm,Calm,-,N/A,,Scattered Clouds,0,2013-08-19 02:35:00
10:55 PM,60.8,59.0,94,30.26,7.0,Calm,Calm,-,N/A,,Mostly Cloudy,0,2013-08-19 02:55:00
11:15 PM,60.8,59.0,94,30.26,7.0,Calm,Calm,-,N/A,,Overcast,0,2013-08-19 03:15:00
11:35 PM,60.8,59.0,94,30.26,7.0,Calm,Calm,-,N/A,,Overcast,0,2013-08-19 03:35:00
11:55 PM,60.8,59.0,94,30.26,7.0,Calm,Calm,-,N/A,,Mostly Cloudy,0,2013-08-19 03:55:00